Weather History for Savanna, IL

Change the Weather History Date:

Wednesday, January 8, 2014

  Actual Average (KCWI) Record (KCWI)
Temperature  
Mean Temperature 0 °F -  
Max Temperature 11 °F 24 °F 59 °F (2003)
Min Temperature -10 °F 6 °F -19 °F (1970)
Degree Days  
Heating Degree Days 64    
Moisture  
Dew Point -8 °F    
Average Humidity 74    
Maximum Humidity 85    
Minimum Humidity 55    
Precipitation  
Precipitation 0.00 in - - ()
Sea Level Pressure  
Sea Level Pressure 30.41 in    
Wind  
Wind Speed 2 mph (NW)    
Max Wind Speed 7 mph    
Max Gust Speed -    
Visibility 10 miles    
Events      
Averages and records for this station are not official NWS values.
T = Trace of Precipitation, MM = Missing Value Source: NWS Daily Summary

Daily Weather History Graph

Daily Weather History Graph

Search for Another Location

Airport:

Trip Planner

Search our weather history database for the weather conditions in past years. The results will help you decide how hot, cold, wet, or windy it might be!

Date:

Astronomy

Jan. 08, 2014 Rise Set
Actual Time 7:28 AM CST 4:46 PM CST
Civil Twilight 6:57 AM CST 5:17 PM CST
Nautical Twilight 6:22 AM CST 5:52 PM CST
Astronomical Twilight 5:48 AM CST 6:26 PM CST
Moon 11:42 AM CST (1/8) 12:30 AM CST (1/8)
Length of Visible Light 10h 20m
Length of Day
9h 18m
First Quarter, 56% of the Moon is Illuminated
Jan 8
First Quarter
Jan 15
Full
Jan 23
Last Quarter
Jan 30
New
Feb 6
First Quarter

Hourly Weather History & Observations

Time (CST) Temp. Windchill Dew Point Humidity Pressure Visibility Wind Dir Wind Speed Gust Speed Precip Events Conditions
12:15 AM -8.7 °F - -13.7 °F 79% 30.28 in 10.0 mi Calm Calm - N/A   Clear
12:35 AM -8.9 °F -22.1 °F -13.7 °F 79% 30.27 in 10.0 mi NNW 5.8 mph - N/A   Clear
12:55 AM -8.9 °F - -13.7 °F 79% 30.28 in 10.0 mi Calm Calm - N/A   Clear
1:15 AM -7.6 °F - -12.5 °F 79% 30.28 in 10.0 mi Calm Calm - N/A   Clear
1:35 AM -8.1 °F -19.4 °F -13.4 °F 78% 30.28 in 10.0 mi NNW 4.6 mph - N/A   Clear
1:55 AM -8.7 °F -17.8 °F -13.2 °F 81% 30.29 in 10.0 mi NW 3.5 mph - N/A   Clear
2:15 AM -9.0 °F - -14.1 °F 79% 30.30 in 10.0 mi Calm Calm - N/A   Clear
2:35 AM -9.4 °F -18.6 °F -14.3 °F 79% 30.30 in 10.0 mi NNW 3.5 mph - N/A   Clear
2:55 AM -7.2 °F - -12.1 °F 79% 30.31 in 10.0 mi Calm Calm - N/A   Clear
3:15 AM -7.8 °F -16.7 °F -13.0 °F 78% 30.32 in 10.0 mi North 3.5 mph - N/A   Clear
3:35 AM -8.9 °F - -14.1 °F 78% 30.32 in 10.0 mi Calm Calm - N/A   Clear
3:55 AM -8.7 °F - -13.7 °F 79% 30.34 in 10.0 mi Calm Calm - N/A   Clear
4:15 AM -8.5 °F -17.6 °F -13.9 °F 77% 30.34 in 10.0 mi North 3.5 mph - N/A   Clear
4:35 AM -9.8 °F -19.0 °F -14.8 °F 78% 30.34 in 10.0 mi NW 3.5 mph - N/A   Clear
4:55 AM -8.5 °F -17.6 °F -13.7 °F 78% 30.35 in 10.0 mi NNW 3.5 mph - N/A   Clear
5:15 AM -10.8 °F - -15.9 °F 78% 30.34 in 10.0 mi Calm Calm - N/A   Clear
5:35 AM -10.5 °F - -15.7 °F 78% 30.35 in 10.0 mi Calm Calm - N/A   Clear
5:55 AM -10.3 °F - -15.3 °F 78% 30.36 in 10.0 mi Calm Calm - N/A   Clear
6:15 AM -8.9 °F - -14.1 °F 78% 30.36 in 10.0 mi Calm Calm - N/A   Scattered Clouds
6:35 AM -8.3 °F - -13.7 °F 77% 30.36 in 10.0 mi Calm Calm - N/A   Scattered Clouds
6:55 AM -8.5 °F - -13.5 °F 79% 30.36 in 10.0 mi Calm Calm - N/A   Mostly Cloudy
7:15 AM -7.8 °F - -12.8 °F 79% 30.38 in 10.0 mi Calm Calm - N/A   Scattered Clouds
7:35 AM -6.7 °F - -11.9 °F 78% 30.39 in 10.0 mi Calm Calm - N/A   Clear
7:55 AM -6.7 °F - -11.6 °F 79% 30.39 in 10.0 mi Calm Calm - N/A   Clear
8:15 AM -6.0 °F -14.7 °F -11.2 °F 78% 30.41 in 10.0 mi North 3.5 mph - N/A   Clear
8:35 AM -4.7 °F -13.2 °F -9.6 °F 80% 30.42 in 10.0 mi NNW 3.5 mph - N/A   Clear
8:55 AM -2.4 °F - -7.8 °F 78% 30.43 in 10.0 mi Calm Calm - N/A   Clear
9:15 AM -1.1 °F - -6.9 °F 77% 30.43 in 10.0 mi Calm Calm - N/A   Clear
9:35 AM 1.2 °F - -5.3 °F 74% 30.44 in 10.0 mi Calm Calm - N/A   Clear
9:55 AM 1.4 °F - -4.9 °F 75% 30.44 in 10.0 mi Calm Calm - N/A   Clear
10:15 AM 1.6 °F - -5.6 °F 72% 30.45 in 10.0 mi Calm Calm - N/A   Clear
10:35 AM 2.7 °F - -5.3 °F 70% 30.44 in 10.0 mi Calm Calm - N/A   Clear
10:55 AM 3.4 °F - -4.9 °F 68% 30.44 in 10.0 mi Calm Calm - N/A   Clear
11:15 AM 5.2 °F - -4.2 °F 65% 30.43 in 10.0 mi Calm Calm - N/A   Clear
11:35 AM 6.8 °F - -3.8 °F 62% 30.43 in 10.0 mi Calm Calm - N/A   Clear
11:55 AM 7.5 °F 0.8 °F -2.9 °F 62% 30.42 in 10.0 mi SE 3.5 mph - N/A   Clear
12:15 PM 8.1 °F 1.4 °F -1.8 °F 64% 30.41 in 10.0 mi SE 3.5 mph - N/A   Clear
12:35 PM 8.1 °F 1.4 °F -1.7 °F 65% 30.41 in 10.0 mi SE 3.5 mph - N/A   Clear
12:55 PM 8.4 °F 1.8 °F -0.9 °F 66% 30.41 in 10.0 mi SE 3.5 mph - N/A   Clear
1:15 PM 9.5 °F - -0.2 °F 65% 30.41 in 10.0 mi Calm Calm - N/A   Clear
1:35 PM 10.4 °F 4.0 °F -1.7 °F 58% 30.41 in 10.0 mi WNW 3.5 mph - N/A   Clear
1:55 PM 10.9 °F 0.2 °F -2.6 °F 55% 30.41 in 10.0 mi WNW 6.9 mph - N/A   Clear
2:15 PM 11.3 °F 1.9 °F -2.0 °F 55% 30.42 in 10.0 mi West 5.8 mph - N/A   Clear
2:35 PM 11.3 °F 0.7 °F -2.2 °F 55% 30.43 in 10.0 mi WSW 6.9 mph - N/A   Clear
2:55 PM 11.1 °F 1.7 °F -1.5 °F 57% 30.44 in 10.0 mi WSW 5.8 mph - N/A   Clear
3:15 PM 10.8 °F 1.2 °F -1.7 °F 57% 30.44 in 10.0 mi WSW 5.8 mph - N/A   Clear
3:35 PM 10.0 °F -0.9 °F -1.3 °F 60% 30.45 in 10.0 mi SW 6.9 mph - N/A   Clear
3:55 PM 9.5 °F 1.2 °F -1.3 °F 62% 30.46 in 10.0 mi SW 4.6 mph - N/A   Clear
4:15 PM 9.3 °F - -0.9 °F 63% 30.45 in 10.0 mi Calm Calm - N/A   Clear
4:35 PM 9.1 °F - -0.9 °F 64% 30.45 in 10.0 mi Calm Calm - N/A   Clear
4:55 PM 7.2 °F 0.3 °F -2.2 °F 66% 30.46 in 10.0 mi SSW 3.5 mph - N/A   Clear
5:15 PM 5.4 °F -1.7 °F -2.6 °F 70% 30.46 in 10.0 mi SSW 3.5 mph - N/A   Clear
5:35 PM 4.8 °F -4.3 °F -2.4 °F 72% 30.47 in 10.0 mi SSW 4.6 mph - N/A   Clear
5:55 PM 3.2 °F -4.2 °F -3.5 °F 74% 30.47 in 10.0 mi SSW 3.5 mph - N/A   Clear
6:15 PM 5.5 °F - -1.8 °F 72% 30.47 in 10.0 mi Calm Calm - N/A   Clear
6:35 PM 2.7 °F - -3.8 °F 74% 30.48 in 10.0 mi Calm Calm - N/A   Clear
6:55 PM 1.2 °F - -3.8 °F 79% 30.48 in 10.0 mi Calm Calm - N/A   Clear
7:15 PM 0.3 °F -7.5 °F -4.2 °F 81% 30.48 in 10.0 mi NNE 3.5 mph - N/A   Clear
7:35 PM -2.0 °F - -6.7 °F 80% 30.49 in 10.0 mi Calm Calm - N/A   Clear
7:55 PM -0.9 °F -8.9 °F -5.8 °F 80% 30.50 in 10.0 mi North 3.5 mph - N/A   Clear
8:15 PM -1.7 °F -9.7 °F -5.8 °F 83% 30.50 in 10.0 mi North 3.5 mph - N/A   Clear
8:35 PM -1.8 °F -12.0 °F -6.2 °F 82% 30.49 in 10.0 mi NNE 4.6 mph - N/A   Clear
8:55 PM -2.0 °F -10.1 °F -6.9 °F 80% 30.49 in 10.0 mi NNE 3.5 mph - N/A   Clear
9:15 PM 0.5 °F - -4.7 °F 79% 30.50 in 10.0 mi Calm Calm - N/A   Clear
9:35 PM -1.1 °F - -5.6 °F 81% 30.50 in 10.0 mi Calm Calm - N/A   Clear
9:55 PM -3.5 °F - -7.1 °F 85% 30.50 in 10.0 mi Calm Calm - N/A   Clear
10:15 PM -6.9 °F - -12.1 °F 78% 30.51 in 10.0 mi Calm Calm - N/A   Clear
10:35 PM -7.6 °F -16.5 °F -12.1 °F 81% 30.50 in 10.0 mi NE 3.5 mph - N/A   Clear
10:55 PM -6.5 °F -17.5 °F -10.7 °F 82% 30.50 in 10.0 mi North 4.6 mph - N/A   Clear
11:15 PM -6.3 °F - -10.7 °F 82% 30.50 in 10.0 mi Calm Calm - N/A   Clear
11:35 PM -5.8 °F - -10.1 °F 82% 30.50 in 10.0 mi Calm Calm - N/A   Clear
11:55 PM -5.3 °F -13.8 °F -9.9 °F 80% 30.51 in 10.0 mi North 3.5 mph - N/A   Clear